• In Schweiz
  • Länderverzeichnis
  • Für 7 Tage
  • Wassertemperatur
  • Satellitenkarten
  • Wetterkarte
  • Widgets
  • user-avatar
    Anmelden

    Stündliche Wetter Boma

    Heute, 19 Juni, Dienstag

    Zeit Temperatur Niederschläge Wind Luftdruck Luftfeuchtigkeit
    00:00 +21°C° 0,8 mm 2 m/S 701 mmHg 98%
    01:00 +21°C° 0 mm 2 m/S 701 mmHg 98%
    02:00 +21°C° 0,1 mm 2 m/S 701 mmHg 97%
    03:00 +21°C° 0,1 mm 2 m/S 701 mmHg 97%
    04:00 +21°C° 0,1 mm 2 m/S 701 mmHg 97%
    05:00 +21°C° 0,1 mm 2 m/S 701 mmHg 97%
    06:00 +22°C° 0,1 mm 1 m/S 701 mmHg 97%
    07:00 +22°C° 0 mm 1 m/S 702 mmHg 97%
    08:00 +22°C° 0,1 mm 1 m/S 702 mmHg 95%
    09:00 +23°C° 0,1 mm 2 m/S 702 mmHg 93%
    10:00 +23°C° 0,1 mm 2 m/S 702 mmHg 90%
    11:00 +24°C° 0,1 mm 2 m/S 702 mmHg 85%
    12:00 +25°C° 0,1 mm 2 m/S 702 mmHg 80%
    13:00 +26°C° 0 mm 3 m/S 701 mmHg 72%
    14:00 +27°C° 0 mm 2 m/S 701 mmHg 70%
    15:00 +27°C° 0 mm 2 m/S 701 mmHg 68%
    16:00 +28°C° 0 mm 2 m/S 700 mmHg 66%
    17:00 +26°C° 0,2 mm 1 m/S 700 mmHg 72%
    18:00 +25°C° 0,2 mm 1 m/S 700 mmHg 78%
    19:00 +24°C° 0,2 mm 1 m/S 701 mmHg 84%
    20:00 +23°C° 0,9 mm 1 m/S 701 mmHg 88%
    21:00 +23°C° 0,9 mm 1 m/S 701 mmHg 91%
    22:00 +21°C° 0,9 mm 2 m/S 702 mmHg 95%
    23:00 +21°C° 1,9 mm 2 m/S 702 mmHg 95%

    Morgen, 20 Juni, Mittwoch

    Zeit Temperatur Niederschläge Wind Luftdruck Luftfeuchtigkeit
    00:00 +21°C° 1,9 mm 2 m/S 702 mmHg 96%
    01:00 +21°C° 1,9 mm 2 m/S 702 mmHg 97%
    02:00 +20°C° 0,4 mm 2 m/S 701 mmHg 97%
    03:00 +20°C° 0,4 mm 2 m/S 701 mmHg 97%
    04:00 +20°C° 0,4 mm 2 m/S 701 mmHg 98%
    05:00 +20°C° 0,5 mm 2 m/S 701 mmHg 98%
    06:00 +21°C° 0,5 mm 1 m/S 701 mmHg 98%
    07:00 +21°C° 0,5 mm 1 m/S 702 mmHg 98%
    08:00 +22°C° 1,3 mm 1 m/S 702 mmHg 97%
    09:00 +22°C° 1,3 mm 1 m/S 702 mmHg 96%
    10:00 +22°C° 1,3 mm 1 m/S 703 mmHg 95%
    11:00 +22°C° 0,8 mm 1 m/S 703 mmHg 94%
    12:00 +23°C° 0,8 mm 2 m/S 702 mmHg 93%
    13:00 +23°C° 0,8 mm 2 m/S 702 mmHg 92%
    14:00 +24°C° 0,2 mm 2 m/S 702 mmHg 88%
    15:00 +25°C° 0,2 mm 1 m/S 701 mmHg 84%
    16:00 +25°C° 0,2 mm 1 m/S 701 mmHg 81%
    17:00 +24°C° 0,4 mm 1 m/S 701 mmHg 86%
    18:00 +23°C° 0,4 mm 1 m/S 701 mmHg 91%
    19:00 +20°C° 0,4 mm 0 m/S 701 mmHg 96%
    20:00 +20°C° 0,2 mm 0 m/S 702 mmHg 97%
    21:00 +19°C° 0,2 mm 0 m/S 702 mmHg 98%
    22:00 +19°C° 0,2 mm 0 m/S 703 mmHg 98%
    23:00 +21°C° 0,2 mm 1 m/S 703 mmHg 99%

    übermorgen, 21 Juni, Donnerstag

    Zeit Temperatur Niederschläge Wind Luftdruck Luftfeuchtigkeit
    00:00 +21°C° 0,2 mm 1 m/S 703 mmHg 99%
    01:00 +21°C° 0,2 mm 1 m/S 703 mmHg 99%
    02:00 +21°C° 0 mm 1 m/S 702 mmHg 99%
    03:00 +21°C° 0 mm 1 m/S 702 mmHg 99%
    04:00 +21°C° 0 mm 1 m/S 702 mmHg 99%
    05:00 +21°C° 0 mm 1 m/S 702 mmHg 98%
    06:00 +21°C° 0 mm 1 m/S 702 mmHg 98%
    07:00 +21°C° 0 mm 1 m/S 703 mmHg 98%
    08:00 +22°C° 0 mm 1 m/S 703 mmHg 93%
    09:00 +23°C° 0 mm 1 m/S 704 mmHg 89%
    10:00 +24°C° 0 mm 1 m/S 704 mmHg 84%
    11:00 +25°C° 0,1 mm 1 m/S 704 mmHg 79%
    12:00 +26°C° 0,1 mm 1 m/S 703 mmHg 74%
    13:00 +27°C° 0,1 mm 1 m/S 703 mmHg 70%
    14:00 +28°C° 0,3 mm 1 m/S 702 mmHg 68%
    15:00 +28°C° 0,3 mm 1 m/S 702 mmHg 66%
    16:00 +28°C° 0,3 mm 1 m/S 701 mmHg 64%
    17:00 +27°C° 0,1 mm 1 m/S 701 mmHg 71%
    18:00 +25°C° 0,1 mm 1 m/S 701 mmHg 79%
    19:00 +21°C° 0,1 mm 0 m/S 702 mmHg 86%
    20:00 +21°C° 0,2 mm 0 m/S 702 mmHg 88%
    21:00 +20°C° 0,2 mm 0 m/S 703 mmHg 90%
    22:00 +20°C° 0,2 mm 0 m/S 703 mmHg 92%
    23:00 +21°C° 0 mm 1 m/S 703 mmHg 94%

    22 Juni, Freitag

    Zeit Temperatur Niederschläge Wind Luftdruck Luftfeuchtigkeit
    00:00 +21°C° 0 mm 1 m/S 703 mmHg 96%
    01:00 +21°C° 0 mm 1 m/S 703 mmHg 97%
    02:00 +21°C° 0 mm 1 m/S 702 mmHg 98%
    03:00 +20°C° 0 mm 1 m/S 702 mmHg 98%
    04:00 +20°C° 0 mm 1 m/S 702 mmHg 98%
    05:00 +21°C° 0 mm 1 m/S 702 mmHg 97%
    06:00 +21°C° 0 mm 1 m/S 703 mmHg 95%
    07:00 +21°C° 0 mm 1 m/S 703 mmHg 94%
    08:00 +22°C° 0 mm 1 m/S 704 mmHg 90%
    09:00 +23°C° 0 mm 1 m/S 704 mmHg 86%
    10:00 +24°C° 0 mm 1 m/S 704 mmHg 82%
    11:00 +25°C° 0 mm 1 m/S 704 mmHg 75%
    12:00 +27°C° 0 mm 1 m/S 703 mmHg 68%
    13:00 +28°C° 0 mm 1 m/S 703 mmHg 62%
    14:00 +29°C° 0,1 mm 1 m/S 702 mmHg 60%
    15:00 +29°C° 0,1 mm 1 m/S 702 mmHg 58%
    16:00 +30°C° 0,1 mm 1 m/S 701 mmHg 56%
    17:00 +28°C° 0,2 mm 1 m/S 701 mmHg 63%
    18:00 +24°C° 0,2 mm 0 m/S 701 mmHg 70%
    19:00 +22°C° 0,2 mm 0 m/S 701 mmHg 78%
    20:00 +21°C° 0,8 mm 0 m/S 702 mmHg 83%
    21:00 +21°C° 0,8 mm 0 m/S 702 mmHg 88%
    22:00 +20°C° 0,8 mm 0 m/S 703 mmHg 92%
    23:00 +20°C° 0,7 mm 0 m/S 703 mmHg 94%

    23 Juni, Samstag

    Zeit Temperatur Niederschläge Wind Luftdruck Luftfeuchtigkeit
    00:00 +20°C° 0,7 mm 0 m/S 702 mmHg 96%
    01:00 +19°C° 0,7 mm 0 m/S 702 mmHg 98%
    02:00 +19°C° 0,4 mm 0 m/S 702 mmHg 98%
    03:00 +19°C° 0,4 mm 0 m/S 702 mmHg 99%
    04:00 +19°C° 0,4 mm 0 m/S 701 mmHg 99%
    05:00 +19°C° 0,2 mm 0 m/S 702 mmHg 99%
    06:00 +19°C° 0,2 mm 0 m/S 702 mmHg 99%
    07:00 +20°C° 0,2 mm 0 m/S 703 mmHg 99%
    08:00 +21°C° 0 mm 0 m/S 703 mmHg 94%
    09:00 +22°C° 0 mm 0 m/S 703 mmHg 90%
    10:00 +25°C° 0 mm 1 m/S 704 mmHg 86%
    11:00 +26°C° 0,2 mm 1 m/S 703 mmHg 80%
    12:00 +27°C° 0,2 mm 1 m/S 702 mmHg 74%
    13:00 +28°C° 0,2 mm 1 m/S 702 mmHg 69%
    14:00 +28°C° 1,1 mm 1 m/S 701 mmHg 76%
    15:00 +27°C° 1,1 mm 1 m/S 701 mmHg 83%
    16:00 +26°C° 1,1 mm 1 m/S 700 mmHg 90%
    17:00 +23°C° 1,2 mm 0 m/S 700 mmHg 92%
    18:00 +22°C° 1,1 mm 0 m/S 701 mmHg 94%
    19:00 +21°C° 1,1 mm 0 m/S 701 mmHg 96%
    20:00 +20°C° 0,5 mm 0 m/S 701 mmHg 96%
    21:00 +20°C° 0,5 mm 0 m/S 702 mmHg 96%
    22:00 +20°C° 0,5 mm 0 m/S 702 mmHg 97%
    23:00 +20°C° 0,1 mm 0 m/S 701 mmHg 97%

    24 Juni, Sonntag

    Zeit Temperatur Niederschläge Wind Luftdruck Luftfeuchtigkeit
    00:00 +19°C° 0,1 mm 0 m/S 701 mmHg 97%
    01:00 +19°C° 0,1 mm 0 m/S 701 mmHg 98%
    02:00 +19°C° 0 mm 0 m/S 700 mmHg 98%
    03:00 +19°C° 0 mm 0 m/S 700 mmHg 98%
    04:00 +18°C° 0 mm 0 m/S 700 mmHg 98%
    05:00 +19°C° 0,1 mm 0 m/S 701 mmHg 98%
    06:00 +19°C° 0,1 mm 0 m/S 701 mmHg 98%
    07:00 +19°C° 0,1 mm 0 m/S 702 mmHg 98%
    08:00 +20°C° 0,1 mm 0 m/S 702 mmHg 92%
    09:00 +22°C° 0,1 mm 0 m/S 702 mmHg 87%
    10:00 +23°C° 0,1 mm 0 m/S 703 mmHg 81%
    11:00 +25°C° 0,1 mm 0 m/S 702 mmHg 73%
    12:00 +27°C° 0,1 mm 0 m/S 702 mmHg 64%
    13:00 +29°C° 0,1 mm 0 m/S 701 mmHg 55%
    14:00 +29°C° 0 mm 0 m/S 701 mmHg 55%
    15:00 +29°C° 0 mm 0 m/S 700 mmHg 54%
    16:00 +29°C° 0 mm 0 m/S 700 mmHg 53%
    17:00 +27°C° 0 mm 0 m/S 700 mmHg 61%
    18:00 +25°C° 0 mm 0 m/S 700 mmHg 68%
    19:00 +23°C° 0 mm 0 m/S 701 mmHg 75%
    20:00 +22°C° 0,6 mm 0 m/S 701 mmHg 80%
    21:00 +22°C° 0,6 mm 0 m/S 701 mmHg 86%
    22:00 +21°C° 0,6 mm 0 m/S 701 mmHg 91%
    23:00 +20°C° 0,3 mm 0 m/S 701 mmHg 93%
    Mehr zeigen